Location: ?????????
(44.2517°N, 135.2292°E)
Time: 14:36:32
(UTC+00:00)

GEOS 3 Rocket - Pass Details

Date: 19 May 2025
Orbit: 782 x 832 km, 115.0° (Epoch: 19 June)

Event Time Altitude Azimuth Distance (km) Brightness Sun altitude
Exits shadow 16:37:51 49° 198° (SSW) 1,003 3.6 -21.7°
Maximum altitude 16:38:43 56° 236° (WSW) 930 3.6 -21.6°
Drops below altitude 10° 16:43:45 10° 315° (NW) 2,365 6.2 -21.2°
Sets 16:46:07 0° 320° (NW) 3,306 7.1 -21.0°
